GFSNE_sfc_wetblb_021.txt.gz
Wetbulb
68.89 69.00 67.85 67.45 67.51 67.10 66.54 65.34 62.29 58.21 58.47 61.73 60.93 64.71 64.57 65.06 65.32 66.12 65.82 64.61 62.97 62.88 62.38 62.38 62.75 63.25 63.49 64.26 65.96 68.08 69.06 69.77 69.95 70.46 71.99 73.23 74.33 75.32
68.13 68.44 68.47 67.62 67.48 67.36 66.40 65.91 64.61 61.87 58.83 61.73 62.25 64.06 65.34 65.03 65.72 65.88 66.02 63.16 63.37 62.64 62.03 61.93 62.50 62.86 63.29 63.53 64.39 65.34 67.11 67.91 68.57 68.72 69.12 70.33 72.02 73.25
68.59 68.27 68.37 68.86 67.15 67.03 67.04 66.14 64.79 63.62 60.64 61.90 63.60 64.62 64.51 64.80 65.56 66.55 66.05 65.43 64.48 63.13 62.47 62.03 61.64 62.01 62.33 62.46 62.99 63.18 64.35 66.10 67.11 67.60 68.28 68.69 69.55 71.27
67.48 68.08 67.83 67.35 67.97 69.21 67.88 67.09 65.72 65.63 62.76 61.22 64.04 63.97 64.67 65.68 65.54 65.35 64.93 64.79 64.61 63.41 62.16 61.35 60.88 60.72 60.63 60.89 61.08 61.08 61.76 62.76 63.99 65.52 66.53 67.24 68.25 69.28
67.79 67.73 67.67 67.82 67.23 67.87 67.47 66.08 65.28 65.34 64.19 61.20 61.51 63.47 63.94 64.24 63.49 64.48 64.47 64.71 64.52 63.63 61.28 60.58 60.40 60.59 60.28 59.86 59.43 59.02 58.82 59.02 59.87 61.87 63.43 64.62 66.12 67.97
68.17 68.35 68.11 67.13 66.94 67.37 67.08 66.70 66.22 65.12 64.61 60.59 60.82 61.61 62.39 63.86 62.96 61.20 61.06 62.89 62.43 63.43 62.84 61.59 61.45 61.21 60.58 59.69 59.56 59.66 58.10 56.98 56.99 58.03 59.93 61.10 63.09 65.16
68.51 68.44 67.91 67.20 65.48 64.75 64.81 65.27 65.46 63.90 62.64 61.72 61.12 61.32 61.09 60.90 60.38 61.38 60.16 61.28 62.50 62.50 61.34 61.90 62.14 61.94 61.92 61.61 61.96 61.80 59.99 58.79 57.43 57.08 57.55 58.59 59.68 61.43
67.38 67.98 68.05 65.16 64.49 62.88 62.41 62.82 63.47 63.62 62.92 62.32 60.95 60.36 59.99 61.03 61.27 60.43 59.70 58.21 56.88 62.34 61.34 60.14 61.74 61.53 62.17 62.14 61.22 60.61 59.39 59.13 58.63 57.95 57.33 57.21 57.91 59.11
67.92 67.67 66.75 65.53 63.43 64.20 62.29 60.98 61.01 61.17 61.66 62.25 59.96 60.03 60.40 61.18 60.82 58.84 58.32 57.82 57.56 60.27 59.96 58.53 60.47 60.11 61.66 62.28 59.83 59.25 58.56 58.22 57.51 58.31 58.47 57.35 56.87 56.93
68.27 67.84 66.55 65.47 64.16 62.46 62.40 62.30 62.90 62.95 63.08 61.86 61.62 60.84 60.94 60.67 59.77 58.49 57.01 57.42 59.47 59.90 61.72 57.18 59.62 56.67 57.75 59.22 59.23 58.84 58.20 57.55 57.04 56.57 57.87 56.75 55.22 54.73
66.34 65.58 63.97 63.30 60.18 57.14 60.70 61.03 61.33 61.37 59.98 56.75 56.51 56.27 56.45 56.70 57.23 56.05 54.77 56.82 56.13 57.08 59.78 56.90 54.76 54.32 55.55 56.38 58.73 59.01 57.55 56.77 55.99 56.20 57.48 56.59 54.19 53.28
62.14 61.32 57.80 60.25 55.21 54.58 59.88 60.29 58.98 59.51 59.09 58.73 59.17 58.80 58.70 59.35 58.09 58.54 57.22 55.49 56.44 53.80 57.91 53.20 53.65 53.97 52.76 56.88 58.89 60.83 61.47 56.41 54.83 54.99 56.03 55.74 53.27 62.62
60.52 61.68 61.93 54.27 52.09 51.37 51.81 59.24 57.71 55.90 56.53 57.17 57.43 57.75 58.33 59.11 59.42 60.02 59.63 58.07 56.50 53.81 56.32 55.33 53.92 54.09 54.32 54.43 57.81 59.58 60.20 61.40 61.86 58.60 53.10 53.45 51.87 60.77
62.59 62.45 60.53 51.25 49.94 50.34 52.15 51.83 51.42 51.92 56.24 56.06 55.65 55.40 55.81 56.26 57.22 57.53 57.60 58.00 59.15 56.09 56.23 55.69 54.72 56.20 55.62 54.19 54.64 58.38 60.37 62.76 63.50 64.68 64.77 57.77 51.74 54.66
61.61 56.80 51.17 48.21 48.75 50.67 50.44 50.08 49.67 55.41 54.66 53.76 53.74 53.83 54.31 55.16 56.03 55.95 57.20 58.79 59.12 56.91 56.52 56.62 57.37 58.17 57.01 55.37 55.47 57.60 59.10 64.09 65.01 65.57 64.81 60.77 59.04 59.47
53.13 57.19 54.47 53.55 49.90 50.90 52.90 53.73 54.60 53.84 52.14 51.58 51.67 52.52 53.61 53.37 52.49 53.52 54.12 54.68 54.66 53.66 55.55 56.95 58.42 59.14 57.35 58.27 57.07 57.49 59.82 62.72 64.82 65.82 64.12 63.37 61.82 62.57
55.36 57.88 57.01 56.53 56.42 56.26 54.93 53.86 53.25 52.39 50.84 50.57 50.49 50.57 50.59 50.57 50.52 52.41 53.95 54.55 53.08 51.98 52.64 55.11 57.47 58.89 58.27 57.15 58.44 61.69 61.38 64.24 64.75 63.86 63.65 62.07 61.74 63.66
54.52 56.11 56.22 56.28 55.33 53.79 52.52 51.58 51.71 49.59 49.81 49.27 49.60 49.28 48.65 48.68 48.99 50.99 52.77 51.14 52.47 53.51 52.07 54.08 55.18 55.00 57.93 56.14 55.73 53.53 59.44 65.56 64.62 63.79 64.62 62.32 61.86 63.53
54.71 55.25 55.44 54.55 53.37 51.88 50.17 49.24 48.70 48.98 49.04 48.54 48.35 48.46 48.40 48.27 48.57 49.80 51.66 48.40 52.29 53.68 53.67 53.78 53.14 52.31 52.16 51.07 55.84 54.38 53.14 60.43 64.30 63.64 64.85 65.32 64.20 64.36
55.52 54.68 53.21 51.38 50.24 50.24 49.05 47.70 46.98 47.61 47.82 47.65 47.71 47.96 48.09 47.70 48.03 48.60 50.99 50.27 50.81 51.43 52.67 54.17 52.32 51.51 51.43 51.40 53.19 55.74 52.52 55.78 57.93 64.19 63.52 66.20 63.74 59.32
52.68 51.62 50.82 49.94 50.26 50.01 48.01 46.46 45.74 46.62 45.92 46.94 47.16 47.31 47.60 47.43 47.29 48.10 50.65 47.97 48.39 47.62 51.32 50.86 51.45 52.89 54.78 56.05 51.08 51.42 54.06 52.54 53.29 52.75 59.85 62.96 63.68 63.04
51.20 49.92 49.79 50.44 50.34 48.04 46.31 45.42 46.78 47.42 47.16 46.77 46.67 47.15 47.46 47.43 46.97 47.22 49.65 48.92 49.27 47.63 48.12 52.07 52.45 51.80 51.54 51.04 49.71 49.60 50.19 53.27 53.53 52.66 52.45 51.74 57.49 61.55
51.04 50.99 50.81 50.60 48.63 47.04 46.72 47.58 47.74 47.71 46.71 46.11 46.23 46.63 47.12 46.41 47.41 47.57 48.11 49.23 47.90 50.01 48.45 50.09 49.91 49.93 48.70 49.17 49.13 48.77 48.81 49.02 51.08 50.06 50.60 51.49 52.33 52.51

GFSNE_sfc_wetblb_024.txt.gz
Wetbulb
69.73 70.07 68.94 67.62 67.69 67.48 66.84 65.84 63.31 60.13 61.00 64.31 63.99 67.06 66.64 66.87 67.89 67.53 67.74 67.15 64.40 63.95 63.39 63.21 63.02 63.12 63.63 63.80 64.19 64.41 64.69 66.53 68.71 69.62 70.09 70.90 73.45 74.99
68.88 69.43 69.69 68.20 67.89 67.86 67.35 66.79 66.14 64.13 61.14 64.10 64.04 66.29 67.40 67.15 68.01 68.06 68.20 66.76 65.75 64.40 63.78 62.88 62.87 63.00 63.30 63.71 63.96 64.07 64.29 64.72 65.65 67.47 68.32 68.90 69.54 70.93
69.71 69.20 69.08 70.31 68.16 67.40 67.58 67.26 66.43 65.63 62.48 63.86 65.19 67.30 67.96 68.15 68.10 68.37 68.32 68.02 67.51 65.16 64.17 63.45 62.58 62.65 62.71 62.65 62.84 62.93 63.17 63.65 63.78 64.62 66.53 67.63 68.38 69.12
68.66 69.01 68.71 68.23 69.08 69.48 67.17 67.96 66.80 67.37 64.33 64.60 66.38 65.28 67.82 68.01 67.77 67.61 66.96 67.01 66.82 65.65 63.91 62.81 62.34 61.75 61.38 61.12 60.96 61.07 61.07 61.51 61.66 62.28 63.37 64.93 67.05 67.85
69.06 68.80 68.70 68.60 68.32 67.89 67.76 66.39 66.20 66.80 66.17 64.33 63.51 64.86 65.31 65.95 66.64 67.22 66.64 67.79 65.89 65.24 62.85 62.41 62.01 61.43 60.54 59.87 59.43 59.04 58.62 58.78 58.96 59.23 59.91 60.79 62.82 65.82
69.65 69.65 69.38 68.74 68.22 68.18 67.69 67.50 67.18 65.90 66.27 63.91 63.45 63.39 63.55 64.78 65.09 63.13 62.69 64.27 63.67 65.02 65.02 63.28 62.91 62.81 61.66 60.10 59.91 59.73 57.87 56.98 56.57 56.77 57.13 57.78 59.28 61.55
69.58 69.61 69.85 69.14 67.39 66.62 66.43 67.32 67.73 65.08 63.75 62.68 61.64 62.47 62.06 63.58 63.73 63.48 61.68 62.78 64.20 64.87 63.21 63.31 63.57 64.12 64.41 62.43 62.86 62.35 59.87 58.23 56.96 56.17 55.96 55.63 56.42 57.88
69.12 69.57 69.93 67.87 66.21 63.89 63.39 63.46 63.89 63.99 63.40 61.76 61.42 62.54 63.22 62.95 63.05 61.90 61.11 59.80 58.82 63.66 62.75 61.67 63.89 63.12 63.84 64.24 62.23 61.03 59.75 58.91 58.16 57.37 56.47 55.73 55.65 56.27
69.65 70.04 68.57 67.04 66.76 67.63 64.51 62.62 62.09 61.42 61.52 63.36 62.04 62.54 62.14 63.09 63.05 61.45 60.53 59.91 59.10 61.27 62.44 59.96 62.86 61.70 63.13 64.26 60.92 60.03 58.76 57.94 57.44 57.20 57.07 56.29 55.75 55.47
66.16 65.46 65.11 65.00 67.76 66.57 65.24 65.31 65.03 65.40 65.51 64.65 64.47 63.89 63.49 63.49 61.95 60.64 60.20 59.15 60.06 61.16 63.47 58.29 61.19 60.67 62.91 63.83 60.70 59.61 58.02 57.25 56.97 56.68 56.24 55.70 54.42 53.64
64.55 64.71 64.76 64.15 62.84 59.91 63.87 63.50 64.01 64.17 62.75 59.18 58.14 57.41 57.20 57.69 58.31 59.17 57.80 56.62 56.93 59.12 62.02 59.59 59.48 60.24 61.58 60.80 60.76 59.04 57.29 56.38 55.83 55.86 56.08 55.20 53.02 52.47
63.60 63.67 60.12 59.36 59.32 56.35 61.95 62.74 61.76 62.64 63.10 62.56 61.70 60.59 59.55 61.48 59.17 60.47 58.53 57.47 58.08 57.30 60.67 58.59 58.32 57.00 52.68 56.18 58.85 60.99 60.59 57.49 54.78 54.28 54.62 54.47 52.36 59.71
63.16 61.86 63.13 57.70 53.52 52.61 53.32 61.95 60.75 59.40 59.69 60.18 60.01 59.52 60.61 61.31 61.11 62.05 62.25 59.64 57.12 56.08 59.06 60.66 57.57 54.48 53.16 52.68 55.64 57.55 58.84 59.47 62.06 59.34 52.26 52.36 51.79 56.12
63.71 66.14 64.32 53.33 51.10 51.35 53.55 53.26 52.24 52.00 58.39 58.95 57.89 57.92 58.56 58.79 59.42 59.35 60.32 60.26 59.48 59.79 62.36 61.97 55.33 53.60 52.88 52.78 54.05 58.08 58.36 60.38 59.91 59.81 61.75 57.89 51.17 52.62
63.93 53.86 51.68 50.52 49.34 51.20 52.04 51.34 50.47 57.14 58.60 56.74 56.46 57.18 57.63 57.80 58.67 59.72 60.62 62.83 62.80 62.61 61.54 61.68 58.06 55.47 55.06 54.10 55.93 56.71 56.91 58.46 59.52 61.70 60.76 63.94 61.20 59.65
54.92 60.45 56.86 54.60 53.56 52.86 55.32 54.21 57.74 58.51 56.45 55.58 55.93 56.33 56.74 56.30 55.37 55.28 53.45 54.66 56.99 58.35 61.55 62.58 59.13 56.45 54.30 56.43 57.33 56.63 58.13 57.01 62.48 65.96 65.51 64.75 64.14 62.97
60.75 62.14 60.34 59.82 59.33 59.13 59.31 59.04 58.17 57.09 55.60 55.57 54.69 54.58 54.32 53.74 52.65 53.23 53.02 55.57 56.30 55.21 57.53 59.13 60.30 57.21 56.63 55.89 53.14 53.32 53.54 58.44 61.96 64.91 63.02 63.13 64.54 65.39
56.67 59.04 59.27 59.43 58.68 58.57 57.82 56.85 56.11 53.80 55.02 54.17 53.54 53.11 52.11 51.38 51.09 51.82 53.98 54.33 54.90 55.39 56.50 57.79 55.95 54.31 53.83 56.53 55.97 53.33 53.54 55.63 65.10 66.18 64.59 62.73 61.83 64.70
57.09 58.59 58.52 58.47 57.75 57.86 56.31 54.87 53.83 54.18 54.20 53.16 52.56 52.02 51.24 50.78 50.32 51.22 52.73 54.31 54.84 55.06 52.10 59.57 53.96 51.86 48.72 49.22 55.11 54.31 52.19 53.92 55.59 62.76 64.11 64.80 63.90 63.80
57.26 57.43 57.48 57.70 56.91 55.43 54.55 53.67 53.25 52.70 52.47 51.83 51.42 51.03 50.50 49.97 49.82 50.10 52.06 53.62 53.30 52.63 50.41 52.70 52.54 51.28 48.90 49.28 50.73 53.01 50.23 52.70 52.73 53.48 64.38 67.99 64.59 60.58
56.66 55.96 56.46 55.99 55.37 54.87 53.49 52.63 51.64 50.94 49.48 50.21 50.44 49.98 50.04 49.89 49.81 49.90 50.84 49.18 49.53 54.12 52.67 51.71 51.72 52.69 53.04 53.59 49.95 49.85 51.57 50.87 52.75 52.39 53.66 63.06 64.66 63.72
56.37 54.66 55.94 55.71 54.92 53.63 51.87 50.57 49.77 50.42 50.62 49.94 49.75 49.72 49.73 49.92 49.35 49.46 49.69 51.14 53.61 53.93 52.92 54.82 51.03 51.29 50.73 49.70 48.05 48.37 48.71 50.67 52.58 51.96 52.44 51.59 52.22 61.83
56.19 54.70 55.72 54.44 53.74 51.28 49.62 49.66 50.14 50.60 50.75 49.54 49.19 49.24 49.52 48.98 49.78 49.92 49.74 50.20 52.07 52.66 54.43 47.89 46.87 49.67 48.37 47.98 48.76 48.32 47.52 47.11 47.98 48.57 48.82 50.50 51.28 51.89

GFSNE_sfc_wetblb_030.txt.gz
Wetbulb
70.67 70.84 69.96 69.03 69.01 68.50 68.01 66.00 64.92 59.96 60.47 63.79 63.27 66.71 67.97 66.54 68.79 66.88 67.22 69.00 67.65 66.41 64.89 64.73 64.81 65.05 65.26 65.38 65.45 65.57 65.20 64.94 64.83 65.00 65.02 65.36 65.77 66.92
70.47 70.18 69.88 69.13 68.88 68.91 66.82 67.28 65.58 63.90 60.75 63.78 62.80 65.74 69.01 68.43 68.83 67.60 68.01 68.20 67.66 66.10 65.01 64.37 64.80 65.26 64.91 64.98 64.58 64.63 64.78 64.78 64.80 64.73 64.91 65.07 64.86 64.92
69.64 69.54 68.47 69.99 68.21 68.11 68.80 67.93 66.97 65.56 62.58 63.72 65.86 66.56 67.99 67.83 68.06 68.81 68.91 67.02 67.03 66.23 65.46 65.11 64.59 64.59 64.50 64.35 64.24 64.22 64.24 64.37 63.97 64.02 64.39 64.54 64.76 64.68
69.78 70.07 69.39 68.99 69.41 69.83 68.55 68.04 67.14 67.26 64.57 62.95 64.90 65.77 65.98 67.88 68.70 67.78 67.89 66.63 66.15 66.58 65.55 65.00 64.19 63.52 63.04 62.71 62.65 62.34 62.49 62.69 62.78 62.76 63.11 63.39 63.97 64.33
70.04 69.43 69.09 69.12 68.79 67.86 68.28 67.70 67.10 66.57 65.96 64.09 63.81 65.53 64.86 66.05 65.45 66.47 66.30 66.71 66.81 66.47 64.26 63.28 63.26 62.97 62.10 61.24 60.66 60.05 59.70 59.76 59.76 59.91 60.29 60.98 61.80 62.86
70.01 69.69 69.47 69.25 68.83 68.35 67.91 66.20 66.26 65.84 64.95 63.68 62.97 62.95 64.23 65.38 64.71 62.73 61.96 63.89 63.47 65.29 65.46 64.05 63.55 63.35 62.53 61.06 60.53 60.33 58.46 57.35 56.56 56.84 56.94 57.62 58.90 59.99
69.47 69.81 69.71 70.03 68.64 67.08 67.78 67.63 65.55 64.30 62.71 62.20 60.49 60.53 60.86 60.81 59.80 61.20 60.92 62.06 62.60 64.33 61.46 61.07 61.46 61.59 61.68 62.18 63.38 63.18 60.86 58.78 56.82 55.76 55.35 55.39 55.77 56.85
68.54 69.94 70.28 68.96 66.62 65.18 64.98 64.42 64.80 63.26 62.02 61.20 61.08 59.93 60.30 61.86 62.21 61.33 60.60 59.23 57.25 62.41 61.06 58.97 60.72 59.65 60.15 61.59 62.97 62.22 60.41 59.46 58.14 57.28 56.05 55.23 55.00 55.25
69.39 69.49 69.42 68.66 67.76 66.81 64.29 63.83 63.82 63.46 63.30 63.18 60.02 59.85 60.95 62.22 62.65 61.12 60.54 59.86 58.56 59.75 58.77 56.28 59.28 58.70 61.37 62.58 61.49 60.84 59.51 58.44 57.36 57.22 56.83 56.02 55.31 54.82
68.70 69.86 69.24 69.37 67.84 66.92 65.42 65.13 64.95 65.29 64.25 63.27 62.39 62.00 62.89 63.22 62.78 61.12 59.37 58.26 58.78 59.40 60.41 55.90 58.85 58.86 61.30 62.02 61.59 60.72 58.72 57.16 56.71 56.30 56.01 54.48 52.75 51.98
68.74 69.96 69.56 69.29 66.14 61.75 64.89 64.16 64.14 63.50 63.23 61.68 61.90 61.70 60.42 59.55 59.53 59.25 57.04 56.00 55.25 56.76 60.07 58.01 58.06 58.11 57.86 57.80 58.84 60.08 57.93 56.09 55.64 55.66 55.75 55.09 53.39 52.08
69.37 68.99 62.75 66.52 60.11 58.83 63.41 63.81 62.09 62.56 63.89 63.79 63.81 62.42 60.43 60.41 59.81 59.40 58.73 56.24 56.01 55.89 58.97 57.14 54.46 54.33 51.13 55.47 57.73 59.73 59.58 57.02 54.73 53.57 54.31 54.16 53.10 54.67
67.38 67.85 68.73 58.68 56.29 55.89 56.79 63.35 62.09 60.33 61.30 61.45 60.81 59.69 59.90 60.65 60.65 61.38 61.14 59.27 57.49 56.54 57.73 55.84 53.63 53.42 53.65 54.39 57.42 58.53 58.41 57.35 57.38 56.77 54.22 52.51 51.92 52.68
68.27 68.37 66.88 56.19 53.56 53.70 55.55 59.86 54.55 55.30 58.63 58.21 57.67 57.61 58.13 58.53 59.52 59.48 60.36 59.79 58.81 57.44 57.66 57.59 55.99 55.74 55.38 54.43 54.25 56.66 56.93 56.58 56.18 56.96 56.96 55.21 53.77 53.11
62.93 57.14 52.58 52.23 52.95 53.47 54.25 55.94 53.28 57.48 57.38 56.81 57.01 56.94 56.93 58.66 59.07 57.75 59.33 60.65 60.62 59.53 57.14 58.95 58.50 57.34 56.65 55.10 54.52 54.56 53.88 54.54 55.86 55.72 54.01 54.20 55.03 56.00
56.49 57.05 57.06 57.41 57.81 58.52 57.05 54.92 56.84 58.48 58.43 58.42 57.23 57.35 58.30 56.97 55.90 56.17 53.75 53.03 50.92 50.82 55.65 59.42 59.73 57.24 55.74 55.44 54.77 53.49 53.67 52.17 54.73 53.52 52.43 52.50 53.74 54.79
61.86 62.99 59.04 59.23 59.34 58.44 58.78 59.82 58.82 58.65 57.31 57.17 57.52 56.60 55.22 54.72 53.93 54.37 52.58 50.55 49.80 51.08 54.23 55.68 58.60 58.44 56.41 54.76 52.66 52.68 53.01 52.59 51.41 51.26 50.76 50.07 51.82 54.37
59.19 64.22 62.75 61.97 59.99 58.01 59.08 58.82 58.97 57.86 56.60 56.77 57.34 55.45 53.99 53.19 52.23 52.17 51.41 51.75 50.16 51.70 53.47 54.08 55.79 54.52 52.96 53.25 55.64 52.39 52.45 50.00 50.08 50.14 50.03 48.18 49.69 57.07
62.24 61.31 60.19 59.86 59.49 59.76 59.47 57.57 55.20 55.57 57.06 57.07 56.37 55.41 53.77 52.87 51.24 50.64 50.60 50.49 50.30 50.12 52.35 55.39 53.41 49.88 48.40 47.06 51.60 53.48 50.43 49.10 48.53 48.24 48.52 47.46 47.44 52.72
58.35 58.52 59.16 60.63 60.65 60.05 57.41 57.12 57.12 56.49 56.25 55.44 53.70 52.63 52.38 52.07 50.58 50.04 50.64 49.84 49.18 48.89 52.77 52.81 49.49 49.17 48.60 48.24 49.12 51.28 49.51 48.51 47.70 46.88 45.98 47.06 51.18 54.67
58.56 59.36 58.73 58.39 58.01 57.85 57.57 57.09 56.03 54.96 52.40 52.03 51.59 51.64 52.21 50.39 49.95 50.25 49.74 47.67 47.96 50.42 52.27 49.89 50.03 51.56 51.17 52.95 48.65 48.23 49.78 49.67 49.18 47.88 46.67 44.93 46.65 50.21
57.58 56.76 56.90 57.28 57.08 56.65 56.32 55.45 54.07 53.24 52.86 53.02 52.57 51.69 51.69 50.85 49.19 49.18 49.07 48.91 49.00 50.05 50.21 50.88 51.80 51.92 49.58 47.78 47.19 47.51 47.44 48.88 49.32 49.41 48.87 47.66 45.05 44.01
58.53 57.65 57.31 57.17 57.01 56.11 55.17 52.64 51.50 51.84 52.42 51.52 50.69 50.40 50.81 49.22 50.72 49.63 49.50 49.53 48.86 49.27 47.94 50.45 51.54 49.49 47.49 46.90 47.42 47.05 45.45 46.21 46.19 44.75 44.67 47.11 47.62 48.18

GFSNE_sfc_wetblb_033.txt.gz
Wetbulb
64.82 65.34 63.49 64.01 63.76 64.33 63.07 60.61 58.53 55.11 55.78 58.54 59.07 63.28 64.89 63.87 64.41 64.48 61.98 67.42 66.72 66.61 65.04 64.50 64.88 65.67 66.19 66.40 66.06 66.01 66.17 66.03 65.67 65.31 65.13 64.74 64.94 65.23
65.77 64.98 64.63 64.59 64.47 63.68 63.92 62.80 61.05 58.18 54.79 59.25 59.24 61.60 63.98 64.73 68.16 63.66 64.01 67.25 67.27 66.11 65.24 64.36 64.44 64.85 65.37 65.77 65.59 65.14 65.23 65.49 65.26 65.16 65.05 65.00 65.09 64.60
66.40 64.81 65.28 64.44 63.29 63.05 64.17 62.81 61.67 61.17 58.54 58.68 60.77 62.26 63.45 63.32 64.70 65.35 65.57 64.13 63.57 65.77 65.47 64.69 63.93 64.15 64.76 64.96 64.98 64.74 64.74 64.71 64.67 64.72 64.75 64.86 65.01 65.17
65.29 64.64 64.06 65.54 62.99 63.58 62.83 62.58 62.32 62.36 60.53 58.23 60.17 61.09 61.62 62.33 63.23 63.54 65.17 66.27 63.73 65.44 65.44 64.66 64.04 63.66 63.44 63.36 63.14 62.99 62.92 63.07 63.27 63.34 63.73 63.95 64.25 64.58
66.68 65.52 64.64 64.53 64.16 64.40 64.40 63.07 63.26 63.36 62.01 60.16 59.50 61.30 61.43 61.40 61.22 62.70 62.77 63.10 64.68 65.91 63.76 63.41 62.94 62.50 61.89 61.53 61.21 60.51 59.97 59.90 59.80 60.41 60.94 61.36 62.26 63.27
67.17 66.86 65.62 65.12 64.26 64.25 63.29 63.14 63.13 61.99 61.37 60.01 59.14 59.26 59.69 59.97 60.39 58.07 57.84 59.54 60.60 63.70 64.35 63.22 62.58 62.90 62.83 61.43 60.88 60.55 58.50 57.46 56.95 56.80 57.28 58.13 59.23 60.36
66.97 67.90 67.31 67.56 67.85 65.78 64.28 62.81 62.59 61.07 59.42 58.36 57.56 56.89 57.06 57.60 57.29 57.68 57.55 58.09 59.06 60.07 59.16 58.86 57.94 57.41 57.83 59.44 61.92 63.33 60.86 59.01 57.37 56.53 55.74 55.17 55.72 56.65
66.20 66.45 65.98 68.37 67.80 66.65 65.68 65.08 63.10 59.79 57.95 57.91 57.24 57.14 57.45 59.09 60.23 58.41 57.66 55.67 54.53 59.13 57.18 57.20 56.27 56.80 57.55 56.86 60.71 60.99 60.03 59.31 58.30 57.22 56.22 55.23 54.94 55.05
66.76 66.60 66.87 66.91 64.99 63.54 63.57 63.49 63.29 62.94 62.14 59.27 57.60 57.42 57.70 59.01 59.87 58.95 58.45 58.06 57.25 58.64 56.03 54.21 55.68 55.38 57.71 59.34 60.49 60.40 59.48 58.07 57.15 57.01 56.36 55.81 55.22 54.63
67.09 66.45 66.03 65.54 65.24 63.40 62.71 61.18 61.71 62.14 61.81 62.16 60.67 60.39 59.72 60.72 60.10 59.61 58.22 56.08 55.25 56.04 56.12 53.02 55.47 54.49 56.88 57.90 60.61 60.42 58.61 57.62 56.81 56.03 55.20 54.21 52.58 51.78
66.32 67.53 67.19 65.26 63.83 62.66 62.49 61.11 60.30 60.92 62.53 61.68 61.61 61.53 61.09 61.12 61.27 56.50 54.42 51.82 51.40 52.24 54.56 54.57 54.44 53.60 52.73 52.16 53.65 58.02 56.90 55.55 55.74 55.53 55.53 54.83 52.86 51.72
65.14 66.23 63.16 64.31 60.73 59.90 61.67 59.85 59.03 59.43 59.96 60.45 60.36 59.08 58.94 58.09 59.84 56.90 56.95 52.27 52.84 51.44 54.64 53.57 52.40 48.80 48.31 48.60 50.73 54.09 56.49 56.08 54.85 54.12 54.03 53.47 51.57 53.93
65.01 65.39 65.71 59.56 57.17 56.08 57.93 60.31 59.86 58.90 58.08 55.62 55.24 55.35 55.25 55.14 56.58 57.79 57.91 55.94 53.64 52.94 56.68 54.13 49.55 48.79 48.60 50.51 53.01 55.00 56.35 56.86 56.67 55.71 53.02 51.41 50.78 52.17
65.21 64.94 63.48 58.03 54.27 53.90 56.38 57.90 55.72 54.92 54.40 53.80 53.91 53.21 52.67 53.69 55.64 55.93 56.76 57.16 57.10 55.82 54.72 52.98 50.81 51.58 51.07 50.19 50.53 53.26 54.81 55.79 55.68 54.68 54.72 53.64 52.14 51.91
64.10 59.12 55.27 53.72 52.62 53.86 55.24 56.48 54.95 52.69 52.47 52.69 52.07 52.41 52.55 54.36 54.44 51.74 51.68 50.00 49.33 49.37 51.24 50.13 53.90 53.57 51.80 50.30 51.43 52.32 51.67 53.05 54.27 53.90 54.52 54.79 52.21 52.01
56.14 54.57 55.49 55.75 55.15 56.12 54.13 53.56 52.59 52.60 52.78 52.63 53.07 52.36 51.84 49.93 49.14 49.46 47.29 46.48 44.41 44.72 48.25 51.03 54.79 53.24 51.31 51.71 51.28 51.42 51.61 50.45 52.49 53.79 51.23 50.55 51.27 51.72
56.95 55.82 54.09 53.63 53.05 52.85 53.35 52.81 54.11 53.97 54.13 54.42 54.04 50.92 48.58 48.62 48.19 47.38 45.78 43.95 42.27 43.67 44.97 50.89 51.88 53.76 53.62 52.68 52.20 50.78 50.68 50.97 52.28 50.64 49.49 48.49 49.26 50.38
56.28 57.31 54.42 54.62 54.74 55.08 54.71 54.71 56.68 56.90 55.57 55.09 52.99 49.55 47.70 47.80 45.96 46.09 44.96 43.32 43.58 43.27 44.84 46.60 50.05 48.90 49.43 50.52 55.24 49.79 50.65 51.02 50.08 49.60 48.89 47.32 46.41 47.92
55.09 55.97 55.75 55.03 54.97 55.23 55.92 56.18 53.99 54.24 53.73 51.88 48.71 48.42 47.46 45.89 46.13 44.16 43.42 43.67 43.32 42.62 42.47 49.00 46.77 46.12 44.22 45.92 49.32 52.82 50.57 50.02 48.70 47.50 47.47 46.44 44.87 46.19
51.91 52.05 51.81 52.50 54.13 53.60 51.83 50.93 49.28 49.13 47.66 44.96 44.27 44.18 44.01 44.77 43.59 42.96 43.22 41.79 41.98 42.17 42.67 46.80 44.86 44.56 45.75 48.12 48.73 50.77 49.45 48.69 47.36 45.74 45.43 45.54 46.73 48.45
50.84 51.06 49.66 49.72 50.08 49.90 49.72 48.76 47.44 45.50 43.88 43.35 42.95 43.79 45.13 42.60 41.83 42.62 42.66 44.53 44.52 41.78 44.00 45.63 45.44 50.43 48.21 48.24 45.95 46.64 48.22 48.87 48.75 45.90 44.67 43.08 42.56 44.18
48.73 49.07 49.24 48.79 49.04 48.60 47.34 46.15 45.34 44.76 44.40 44.96 44.38 43.86 42.75 41.94 41.80 42.79 42.14 41.89 41.91 41.68 41.68 44.99 47.07 46.84 44.51 42.96 42.56 44.27 45.57 46.73 48.40 48.40 46.91 45.68 43.10 40.01
49.72 49.14 48.91 48.43 48.23 47.51 46.49 43.94 42.95 43.35 43.33 42.37 41.83 41.96 42.23 42.09 43.06 41.90 42.34 42.97 41.92 41.90 41.12 42.89 45.64 44.36 43.09 43.02 43.69 42.89 43.11 44.40 45.09 43.82 43.85 45.83 46.38 45.95